Search for airport 
image banner adimage banner adimage banner ad
image banner ad

11CN - Shasta Rgnl Medical Center

Located in Redding, United States

ICAO - 11CN, IATA -

Data provided by Airmate  

General information

Coordinates: N40°35'8" W122°23'16"
Elevation is 622 feet MSL.
 
View others Airports in California

Operational data

Special qualification required
Current time UTC:
Current local time:
Weather at : KRDD - Redding Muni ( 12 km )
METAR: KRDD 240853Z AUTO 17022G31KT 5SM RA OVC012 13/11 A2967 RMK AO2 PK WND 17031/0847 SLP046 P0006 60007 T01280111 56028
TAF: KRDD 240536Z 2406/2506 25008G18KT P6SM OVC019 FM240800 18018G25KT 3SM RA OVC025 FM241300 18023G31KT 2SM -RA OVC007 FM241900 18015G22KT 6SM -RA OVC007 FM242200 19014G21KT 2SM -RA BR OVC015
View NOTAMs / SUP AIP / TFR affecting this airport [VIEW]
Communications frequencies: [VIEW]

Runways:

Airport contact information

Address: Redding United States

Satellite view of 11CN